Location: Be Tobo
(6.6442°N, 10.6239°W)
Time: 01:11:10
(UTC+00:00)

YAOGAN 1 - Pass Details

Date: 18 September 2020
Orbit: 618 x 620 km, 97.9° (Epoch: 21 October)

Event Time Altitude Azimuth Distance (km) Brightness Sun altitude
Rises 19:47:53 0° 169° (S) 2,889 5.9 -17.6°
Reaches altitude 10° 19:50:04 10° 170° (S) 1,982 5.0 -18.1°
Maximum altitude 19:54:22 84° 256° (WSW) 626 2.5 -19.2°
Drops below altitude 10° 19:58:41 10° 347° (NNW) 1,979 5.3 -20.3°
Sets 20:00:52 0° 348° (NNW) 2,883 6.2 -20.8°
